Погода в Никольском

Россия / Ярославская область     57°04′51″N   39°14′40″E
темп.,
°C
ветер,
м/с
пор.,
м/с
влажн.,
%
обл.,
%
осадки,
мм/ч
давл.,
гПа
погр.,
м
12 апреля, пн
пн1200:00+6ююв258596 0.0 103398
03:00+4ююв22865 0.0 103421
06:00+4юв34895 0.0 103652
09:00+9юв477343 0.0 1036287
12:00+12вюв5763100 0.0 1035678
15:00+13вюв6859100 0.0 1033951
18:00+11вюв61069100 0.0 1032744
21:00+8юв51279100 0.0 1031527
13 апреля, вт
вт1300:00+6юв4118898 0.0 1030337
03:00+5юв3997100 0.0 1029216
06:00+5юв3997100 0.0 1028194
09:00+10ююв41176100 0.0 1027326
12:00+16ю61155100 0.0 1026729
15:00+18ю6943100 0.0 10251439
18:00+15ю3956100 0.0 1024181
21:00+11ю496986 0.0 1025138
14 апреля, ср
ср1400:00+9ю387193 0.0 1024115
03:00+8ю397584 0.0 1024140
06:00+8ю310775 0.0 1023168
09:00+13ю5105794 0.0 1022347
12:00+17ю584481 0.0 1021745
15:00+19ю67375 0.0 10201494
18:00+16ю3649100 0.0 1019138
21:00+12ю3762100 0.0 101995
15 апреля, чт
чт1500:00+10ю386992 0.0 1019118
03:00+9ю3472100 0.0 101950
06:00+8ююв1273100 0.0 101814
09:00+12ююв2260100 0.0 1018196
12:00+15ююв2351100 0.0 1017540
15:00+17ю1244100 0.0 10161280
18:00+15св2355100 0.0 101650
21:00+10ссв61085100 0.3 1017386
16 апреля, пт
пт1600:00+6ссв6108799 0.1 1019435
03:00+5ссв61188100 0.1 1020556
06:00+4ссв71396100 0.8 1021676
09:00+4св8137899 1.0 1023797
12:00+8св9124592 0.0 10241404
15:00+8св9113630 0.0 10251723
18:00+7св811440 0.0 10271669
21:00+3св713490 0.0 1029812